1400284832562,0.978549
1400284892562,0.972110
1400284952562,0.974603
1400285012562,0.969002
1400285072562,0.979396
1400285132562,0.975009
1400285192562,0.976492
1400285252562,0.970720
1400285312562,0.974309
1400285372562,0.972253
1400285432562,0.978090
1400285492562,0.970340
1400285552562,0.975816
1400285612562,0.977978
1400285672562,0.976624
1400285732562,0.971204
1400285792562,0.978829
1400285852562,0.983439
1400285912562,0.979232
1400285972562,0.978500
1400286032562,0.983478
1400286092562,0.984361
1400286152562,0.985169
1400286212562,0.976646
1400286272562,0.982262
1400286332562,0.991515
1400286392562,0.977837
1400286452562,0.982996
1400286512562,0.983953
1400286572562,0.980490
1400286632562,0.977901
1400286692562,0.980286
1400286752562,0.971346
1400286812562,0.975869
1400286872562,0.982598
1400286932562,0.971884
1400286992562,0.968442
1400287052562,0.976251
1400287112562,0.987059
1400287172562,0.969418
1400287232562,0.970992
1400287292562,0.976496
1400287352562,0.978660
1400287412562,0.976031
1400287472562,0.980349
1400287532562,0.977097
1400287592562,0.975547
1400287652562,0.972792
1400287712562,0.981200
1400287772562,0.976709
1400287832562,0.973512
1400287892562,0.980130
1400287952562,0.975362
1400288012562,0.984219
1400288072562,0.972153
1400288132562,0.976942
1400288192562,0.988654
1400288252562,0.984333
1400288312562,0.985860
1400288372562,0.977126
1400288432573,0.992068
1400288492573,0.989597
1400288552573,0.990018
1400288612573,0.992281
1400288672573,0.996873
1400288732573,0.988995
1400288792573,0.991939
1400288852573,0.990973
1400288912573,0.988329
1400288972573,0.996077
1400289032573,0.993589
1400289092573,0.994985
1400289152573,0.995514
1400289212573,0.984200
1400289272573,1.00310
1400289332573,0.998260
1400289392573,0.995048
1400289452573,0.986595
1400289512573,1.01088
1400289572573,1.00324
1400289632573,0.992949
1400289692573,1.00904
1400289752573,1.00448
1400289812573,1.01164
1400289872573,1.00851
1400289932573,1.01559
1400289992573,1.01186
1400290052573,1.02089
1400290112573,1.03027
1400290172573,1.02538
1400290232573,1.01866
1400290292573,1.01907
1400290352573,1.01752
1400290412573,1.02375
1400290472573,1.01737
1400290532573,1.01755
1400290592573,1.01558
1400290652573,1.01732
1400290712573,1.01342
1400290772573,1.00979
1400290832573,1.00799
1400290892573,1.00719
1400290952573,1.00132
1400291012573,1.01184
1400291072573,1.00820
1400291132573,1.00556
1400291192573,1.00814
1400291252573,1.00354
1400291312573,1.00359
1400291372573,1.00559
1400291432573,1.00536
1400291492573,1.00299
1400291552573,0.997348
1400291612573,1.00083
1400291672573,1.00146
1400291732573,0.999947
1400291792573,0.993902
1400291852573,1.00047
1400291912573,0.993755
1400291972573,1.00194
1400292032583,0.985496
1400292092583,1.00252
1400292152583,0.989346
1400292212583,0.988366
1400292272583,0.991681
1400292332583,0.993543
1400292392583,0.988856
1400292452583,0.990049
1400292512583,0.988501
1400292572583,0.991466
1400292632583,0.993501
1400292692583,0.987799
1400292752583,0.985878
1400292812583,0.994688
1400292872583,0.993293
1400292932583,0.989788
1400292992583,0.991877
1400293052583,1.00078
1400293112583,0.997534
1400293172583,0.989722
1400293232583,1.00156
1400293292583,0.999544
1400293352583,0.999388
1400293412583,0.987201
1400293472583,0.994286
1400293532583,1.00077
1400293592583,0.993989
1400293652583,0.991960
1400293712583,0.994879
1400293772583,0.991618
1400293832583,0.994464
1400293892583,0.996170
1400293952583,0.994676
1400294012583,0.987993
1400294072583,0.989186
1400294132583,0.993475
1400294192583,0.997767
1400294252583,1.01262
1400294312583,1.04823
1400294372583,1.09735
1400294432583,1.09818
1400294492583,1.09541
1400294552583,1.08523
1400294612583,1.07629
1400294672583,1.07253
1400294732583,1.05660
1400294792583,1.05984
1400294852583,1.07555
1400294912583,1.06880
1400294972583,1.07224
1400295032583,1.06506
1400295092583,1.05202
1400295152583,1.05151
1400295212583,1.04241
1400295272583,1.03786
1400295332583,1.02464
1400295392583,1.02705
1400295452583,1.02339
1400295512583,1.02684
1400295572583,1.02517
1400295632593,1.03227
1400295692593,1.03233
1400295752593,1.02620
1400295812593,1.04451
1400295872593,1.03844
1400295932593,1.03529
1400295992593,1.02992
1400296052593,1.03810
1400296112593,1.03039
1400296172593,1.04009
1400296232593,1.03314
1400296292593,1.03536
1400296352593,1.03087
1400296412593,1.03507
1400296472593,1.03698
1400296532593,1.02976
1400296592593,1.03324
1400296652593,1.03210
1400296712593,1.02875
1400296772593,1.02714
1400296832593,1.02943
1400296892593,1.03648
1400296952593,1.03215
1400297012593,1.04067
1400297072593,1.02615
1400297132593,1.02390
1400297192593,1.03517
1400297252593,1.03142
1400297312593,1.02153
1400297372593,1.03919
1400297432593,1.03238
1400297492593,1.02656
1400297552593,1.03251
1400297612593,1.02360
1400297672593,1.02547
1400297732593,1.03883
1400297792593,1.03563
1400297852593,1.03752
1400297912593,1.03059
1400297972593,1.03416
1400298032593,1.03081
1400298092593,1.01772
1400298152593,1.03376
1400298212593,1.03344
1400298272593,1.03199
1400298332593,1.02889
1400298392593,1.02846
1400298452593,1.02583
1400298512593,1.02283
1400298572593,1.02556
1400298632593,1.02312
1400298692593,1.02298
1400298752593,1.01553
1400298812593,1.02333
1400298872593,1.01813
1400298932593,1.01778
1400298992593,1.00917
1400299052593,1.01927
1400299112593,1.01430
1400299172593,1.01479
1400299232603,1.01112
1400299292603,1.01209
1400299352603,1.00931
1400299412603,1.01675
1400299472603,1.01063
1400299532603,1.01408
1400299592603,1.01129
1400299652603,1.00823
1400299712603,1.00834
1400299772603,1.01091
1400299832603,0.999792
1400299892603,1.00747
1400299952603,1.00274
1400300012603,1.00969
1400300072603,0.993448
1400300132603,0.997469
1400300192603,0.992335
1400300252603,1.00103
1400300312603,0.993422
1400300372603,1.00310
1400300432603,0.992134
1400300492603,0.998516
1400300552603,0.999625
1400300612603,0.995206
1400300672603,0.991142
1400300732603,0.995301
1400300792603,0.987195
1400300852603,0.994344
1400300912603,0.995654
1400300972603,0.995798
1400301032603,0.992253
1400301092603,0.991350
1400301152603,0.992935
1400301212603,0.990185
1400301272603,0.993599
1400301332603,0.993582
1400301392603,0.980640
1400301452603,0.991176
1400301512603,0.988119
1400301572603,0.979438
1400301632603,0.989019
1400301692603,0.986909
1400301752603,0.986902
1400301812603,0.991450
1400301872603,0.981347
1400301932603,0.985086
1400301992603,0.991039
1400302052603,0.996899
1400302112603,0.982211
1400302172603,0.985707
1400302232603,0.986574
1400302292603,0.983954
1400302352603,0.985049
1400302412603,0.985310
1400302472603,0.985446
1400302532603,0.976568
1400302592603,0.980735
1400302652603,0.977574
1400302712603,0.983817
1400302772603,0.985705
1400302832613,0.979650
1400302892613,0.989315
1400302952613,0.980702
1400303012613,0.986038
1400303072613,0.977223
1400303132613,0.973866
1400303192613,0.988767
1400303252613,0.984366
1400303312613,0.983640
1400303372613,0.991652
1400303432613,0.991225
1400303492613,1.00037
1400303552613,0.997214
1400303612613,1.00063
1400303672613,0.987417
1400303732613,0.987912
1400303792613,0.988872
1400303852613,0.990310
1400303912613,0.988447
1400303972613,0.981652
1400304032613,0.987259
1400304092613,0.974974
1400304152613,0.989343
1400304212613,0.977321
1400304272613,0.977386
1400304332613,0.986454
1400304392613,0.986546
1400304452613,0.976913
1400304512613,0.979708
1400304572613,0.983929
1400304632613,0.983483
1400304692613,0.970517
1400304752613,0.976671
1400304812613,0.978434
1400304872613,0.975441
1400304932613,0.975828
1400304992613,0.969303
1400305052613,0.978185
1400305112613,0.981415
1400305172613,0.973986
1400305232613,0.971075
1400305292613,0.974760
1400305352613,0.977622
1400305412613,0.979178
1400305472613,0.962866
1400305532613,0.963613
1400305592613,0.978210
1400305652613,0.979876
1400305712613,0.980136
1400305772613,0.976092
1400305832613,0.978741
1400305892613,0.973461
1400305952613,0.977263
1400306012613,0.981687
1400306072613,0.973486
1400306132613,0.974970
1400306192613,0.972005
1400306252613,0.966980
1400306312613,0.972337
1400306372613,0.969610
1400306432622,0.974534
1400306492622,0.972256
1400306552622,0.973931
1400306612622,0.973769
1400306672622,0.968083
1400306732622,0.971170
1400306792622,0.967293
1400306852622,0.968132
1400306912622,0.973353
1400306972622,0.967131
1400307032622,0.974906
1400307092622,0.973473
1400307152622,0.970455
1400307212622,0.968816
1400307272622,0.970493
1400307332622,0.967912
1400307392622,0.967637
1400307452622,0.956043
1400307512622,0.962359
1400307572622,0.968356
1400307632622,0.969253
1400307692622,0.969553
1400307752622,0.971010
1400307812622,0.978541
1400307872622,0.973572
1400307932622,0.974630
1400307992622,0.960369
1400308052622,0.966492
1400308112622,0.975211
1400308172622,0.970912
1400308232622,0.969013
1400308292622,0.967303
1400308352622,0.972080
1400308412622,0.977500
1400308472622,0.971874
1400308532622,0.963695
1400308592622,0.968483
1400308652622,0.967018
1400308712622,0.967065
1400308772622,0.968182
1400308832622,0.972039
1400308892622,0.959619
1400308952622,0.966049
1400309012622,0.967041
1400309072622,0.972059
1400309132622,0.967519
1400309192622,0.969098
1400309252622,0.970805
1400309312622,0.966680
1400309372622,0.970791
1400309432622,0.966662
1400309492622,0.981374
1400309552622,0.973318
1400309612622,0.968512
1400309672622,0.971733
1400309732622,0.965024
1400309792622,0.967279
1400309852622,0.966590
1400309912622,0.975093
1400309972622,0.975270
1400310032631,0.966386
1400310092631,0.960954
1400310152631,0.974132
1400310212631,0.968595
1400310272632,0.971388
1400310332632,0.967756
1400310392632,0.976741
1400310452632,0.972765
1400310512632,0.969100
1400310572632,0.967227
1400310632632,0.967861
1400310692632,0.967495
1400310752632,0.966064
1400310812632,0.964468
1400310872632,0.972274
1400310932632,0.975027
1400310992632,0.974986
1400311052632,0.973314
1400311112632,0.971661
1400311172632,0.969763
1400311232632,0.972944
1400311292632,0.964446
1400311352631,0.969632
1400311412631,0.973349
1400311472631,0.966645
1400311532631,0.975079
1400311592632,0.977248
1400311652632,0.976286
1400311712632,0.977003
1400311772632,0.982116
1400311832632,0.978617
1400311892632,0.982195
1400311952632,0.989850
1400312012632,0.986202
1400312072632,0.986051
1400312132632,0.981464
1400312192632,0.983958
1400312252632,0.984863
1400312312632,0.974258
1400312372632,0.983850
1400312432632,0.981153
1400312492632,0.977199
1400312552632,0.982312
1400312612632,0.984260
1400312672632,0.980867
1400312732631,0.980945
1400312792631,0.986933
1400312852631,0.981453
1400312912631,0.989246
1400312972632,0.975184
1400313032632,0.988797
1400313092632,0.981355
1400313152632,0.982300
1400313212632,0.976453
1400313272632,0.977602
1400313332632,0.976886
1400313392632,0.982023
1400313452632,0.985025
1400313512632,0.979385
1400313572632,0.975820
1400313632641,0.977061
1400313692641,0.983868
1400313752641,0.983950
1400313812641,0.986679
1400313872641,0.977457
1400313932641,0.977978
1400313992641,0.975254
1400314052641,0.976372
1400314112641,0.980119
1400314172641,0.966858
1400314232641,0.973963
1400314292641,0.973591
1400314352641,0.971850
1400314412641,0.976521
1400314472641,0.976255
1400314532641,0.970504
1400314592641,0.976564
1400314652641,0.970892
1400314712641,0.968247
1400314772641,0.979204
1400314832641,0.970518
1400314892641,0.967321
1400314952641,0.970635
1400315012641,0.975728
1400315072641,0.978142
1400315132641,0.975948
1400315192641,0.961387
1400315252641,0.972048
1400315312641,0.972444
1400315372641,0.967854
1400315432641,0.975366
1400315492641,0.978535
1400315552641,0.971587
1400315612641,0.960966
1400315672641,0.975489
1400315732641,0.967193
1400315792641,0.973954
1400315852641,0.966166
1400315912641,0.967717
1400315972641,0.969440
1400316032641,0.960152
1400316092641,0.972729
1400316152641,0.971735
1400316212641,0.966441
1400316272641,0.968312
1400316332641,0.972195
1400316392641,0.972169
1400316452641,0.975093
1400316512641,0.971349
1400316572641,0.961006
1400316632641,0.966750
1400316692641,0.967887
1400316752641,0.970392
1400316812641,0.972843
1400316872641,0.968618
1400316932641,0.963613
1400316992641,0.973810
1400317052641,0.965004
1400317112641,0.973815
1400317172641,0.965988
1400317232650,0.970340
1400317292650,0.977222
1400317352650,0.978009
1400317412650,0.980177
1400317472650,0.981284
1400317532650,0.976710
1400317592650,0.975664
1400317652650,0.983036
1400317712650,0.967704
1400317772650,0.972809
1400317832650,0.974794
1400317892650,0.970099
1400317952650,0.974290
1400318012650,0.979337
1400318072650,0.976705
1400318132650,0.980932
1400318192650,0.971626
1400318252650,0.975444
1400318312650,0.970792
1400318372650,0.981824
1400318432650,0.976490
1400318492650,0.968758
1400318552650,0.969647
1400318612650,0.969994
1400318672650,0.976739
1400318732650,0.981920
1400318792650,0.963083
1400318852650,0.967208
1400318912650,0.955829
1400318972650,0.968178
1400319032650,0.965948
1400319092650,0.968194
1400319152650,0.968092
1400319212650,0.970669
1400319272650,0.972558
1400319332650,0.965731
1400319392650,0.970662
1400319452650,0.967416
1400319512650,0.977795
1400319572650,0.972870
1400319632650,0.976466
1400319692650,0.967486
1400319752650,0.964500
1400319812650,0.969850
1400319872650,0.976547
1400319932650,0.975243
1400319992650,0.979767
1400320052650,0.968855
1400320112650,0.973953
1400320172650,0.968677
1400320232650,0.973132
1400320292650,0.977824
1400320352650,0.974937
1400320412650,0.977790
1400320472650,0.962277
1400320532650,0.968967
1400320592650,0.970184
1400320652650,0.966470
1400320712650,0.974498
1400320772650,0.968537
1400320832659,0.976848
1400320892659,0.981014
1400320952659,0.972561
1400321012659,0.975633
1400321072659,0.968669
1400321132659,0.963711
1400321192659,0.972676
1400321252659,0.967046
1400321312659,0.967160
1400321372659,0.967597
1400321432659,0.976049
1400321492659,0.956586
1400321552659,0.962789
1400321612659,0.962677
1400321672659,0.967800
1400321732659,0.967737
1400321792659,0.962678
1400321852659,0.977670
1400321912659,0.968857
1400321972659,0.977432
1400322032659,0.976173
1400322092659,0.966048
1400322152659,0.974255
1400322212659,0.973822
1400322272659,0.968579
1400322332659,0.969746
1400322392659,0.977153
1400322452659,0.973049
1400322512659,0.967222
1400322572659,0.969394
1400322632659,0.967446
1400322692659,0.963787
1400322752659,0.968475
1400322812659,0.966877
1400322872659,0.972077
1400322932659,0.967440
1400322992659,0.966648
1400323052659,0.966254
1400323112659,0.966676
1400323172659,0.965357
1400323232659,0.965511
1400323292659,0.964290
1400323352659,0.963159
1400323412659,0.966131
1400323472659,0.974735
1400323532659,0.967845
1400323592659,0.964803
1400323652659,0.971640
1400323712659,0.967859
1400323772659,0.972259
1400323832659,0.957357
1400323892659,0.977410
1400323952659,0.970498
1400324012659,0.968616
1400324072659,0.969310
1400324132659,0.962621
1400324192659,0.970619
1400324252659,0.972416
1400324312659,0.972492
1400324372659,0.967393
1400324432669,0.975070
1400324492669,0.967359
1400324552669,0.969912
1400324612669,0.971863
1400324672669,0.977649
1400324732669,0.982247
1400324792669,0.983891
1400324852669,0.971047
1400324912669,0.982182
1400324972669,0.974906
1400325032669,0.974558
1400325092669,0.977629
1400325152669,0.994842
1400325212669,0.983368
1400325272669,0.983529
1400325332669,0.983454
1400325392669,0.977256
1400325452669,0.983099
1400325512669,0.984515
1400325572669,0.974751
1400325632669,0.983164
1400325692669,0.976753
1400325752669,0.975644
1400325812669,0.983880
1400325872669,0.975271
1400325932669,0.976407
1400325992669,0.966799
1400326052669,0.967980
1400326112669,0.973916
1400326172669,0.969696
1400326232669,0.969386
1400326292669,0.967490
1400326352669,0.966290
1400326412669,0.969340
1400326472669,0.967417
1400326532669,0.969945
1400326592669,0.969098
1400326652669,0.966302
1400326712669,0.969718
1400326772669,0.964167
1400326832669,0.963562
1400326892669,0.962371
1400326952669,0.967018
1400327012669,0.957871
1400327072669,0.954998
1400327132669,0.972647
1400327192669,0.955276
1400327252669,0.966290
1400327312669,0.962830
1400327372669,0.964400
1400327432669,0.963137
1400327492669,0.964291
1400327552669,0.963672
1400327612669,0.963922
1400327672669,0.967298
1400327732669,0.964289
1400327792669,0.966529
1400327852669,0.960477
1400327912669,0.958180
1400327972669,0.957793
1400328032678,0.972110
1400328092678,0.970429
1400328152678,0.966779
1400328212678,0.965206
1400328272678,0.969979
1400328332678,0.959292
1400328392678,0.960772
1400328452678,0.961759
1400328512678,0.967924
1400328572678,0.969950
1400328632678,0.964016
1400328692678,0.966794
1400328752678,0.965216
1400328812678,0.961948
1400328872678,0.967425
1400328932678,0.965825
1400328992678,0.968960
1400329052678,0.969838
1400329112678,0.962599
1400329172678,0.962072
1400329232678,0.966333
1400329292678,0.976717
1400329352678,0.969898
1400329412678,0.966076
1400329472678,0.975095
1400329532678,0.965867
1400329592678,0.974376
1400329652678,0.964817
1400329712678,0.974149
1400329772678,0.970443
1400329832678,0.970730
1400329892678,0.965955
1400329952678,0.973993
1400330012678,0.981922
1400330072678,0.986610
1400330132678,0.981134
1400330192678,0.979447
1400330252678,0.985569
1400330312678,0.977915
1400330372678,0.984757
1400330432678,0.983086
1400330492678,0.984276
1400330552678,0.981748
1400330612678,0.976775
1400330672678,0.974462
1400330732678,0.977913
1400330792678,0.983032
1400330852678,0.982677
1400330912678,0.980845
1400330972678,0.989682
1400331032678,0.984828
1400331092678,0.985294
1400331152678,0.985129
1400331212678,0.984441
1400331272678,0.988380
1400331332678,0.987814
1400331392678,0.984961
1400331452678,0.976607
1400331512678,0.991212
1400331572678,0.988607
1400331632687,0.979942
1400331692687,0.981759
1400331752687,0.978028
1400331812687,0.986140
1400331872687,0.978804
1400331932687,0.986777
1400331992687,0.977189
1400332052687,0.976254
1400332112687,0.980415
1400332172687,0.979691
1400332232687,0.982451
1400332292687,0.977111
1400332352687,0.976750
1400332412687,0.981791
1400332472687,0.977470
1400332532687,0.970253
1400332592687,0.975507
1400332652687,0.982296
1400332712687,0.975874
1400332772687,0.975129
1400332832687,0.968144
1400332892687,0.963691
1400332952687,0.978582
1400333012687,0.968863
1400333072687,0.977189
1400333132687,0.972305
1400333192687,0.975446
1400333252687,0.980571
1400333312687,0.967671
1400333372687,0.971386
1400333432687,0.964725
1400333492687,0.969544
1400333552687,0.964500
1400333612687,0.968241
1400333672687,0.966565
1400333732687,0.973897
1400333792687,0.966499
1400333852687,0.969678
1400333912687,0.967843
1400333972687,0.969516
1400334032687,0.975519
1400334092687,0.963074
1400334152687,0.964640
1400334212687,0.974487
1400334272687,0.974934
1400334332687,0.970123
1400334392687,0.968660
1400334452687,0.967517
1400334512687,0.980441
1400334572687,0.975902
1400334632687,0.967835
1400334692687,0.959881
1400334752687,0.973660
1400334812687,0.968197
1400334872687,0.963202
1400334932687,0.971592
1400334992687,0.966276
1400335052687,0.965095
1400335112687,0.971044
1400335172687,0.964270
1400335232696,0.963410
1400335292696,0.966230
1400335352696,0.953368
1400335412696,0.971399
1400335472696,0.965540
1400335532696,0.963282
1400335592696,0.962940
1400335652696,0.964669
1400335712696,0.966227
1400335772696,0.966022
1400335832696,0.974396
1400335892696,0.963174
1400335952696,0.970560
1400336012696,0.970095
1400336072696,0.973160
1400336132696,0.961113
1400336192696,0.964461
1400336252696,0.958646
1400336312696,0.972230
1400336372696,0.966917
1400336432696,0.968321
1400336492696,0.973857
1400336552696,0.965471
1400336612696,0.968831
1400336672696,0.972518
1400336732696,0.967937
1400336792696,0.967561
1400336852696,0.965454
1400336912696,0.967778
1400336972696,0.967485
1400337032696,0.968689
1400337092696,0.966221
1400337152696,0.970940
1400337212696,0.962397
1400337272696,0.968585
1400337332696,0.967524
1400337392696,0.973733
1400337452696,0.969258
1400337512696,0.963472
1400337572696,0.967755
1400337632696,0.976730
1400337692696,0.964127
1400337752696,0.968204
1400337812696,0.974438
1400337872696,0.964593
1400337932696,0.958257
1400337992696,0.964074
1400338052696,0.969688
1400338112696,0.971424
1400338172696,0.960443
1400338232696,0.964291
1400338292696,0.968270
1400338352696,0.970274
1400338412696,0.978164
1400338472696,0.970816
1400338532696,0.962374
1400338592696,0.968288
1400338652696,0.975766
1400338712696,0.966049
1400338772696,0.974074
1400338832705,0.972435
1400338892705,0.965120
1400338952705,0.966763
1400339012705,0.971923
1400339072705,0.979064
1400339132705,0.966856
1400339192705,0.972147
1400339252705,0.971732
1400339312705,0.966843
1400339372705,0.964785
1400339432705,0.963942
1400339492705,0.960809
1400339552705,0.956873
1400339612705,0.971852
1400339672705,0.964792
1400339732705,0.960354
1400339792705,0.965561
1400339852705,0.965502
1400339912705,0.973774
1400339972705,0.967810
1400340032705,0.962847
1400340092705,0.970461
1400340152705,0.967643
1400340212705,0.964094
1400340272705,0.964844
1400340332705,0.974900
1400340392705,0.968657
1400340452705,0.979777
1400340512705,0.972530
1400340572705,0.980825
1400340632705,0.973586
1400340692705,0.970759
1400340752705,0.982120
1400340812705,0.973012
1400340872705,0.966048
1400340932705,0.974694
1400340992705,0.973138
1400341052705,0.976043
1400341112705,0.971840
1400341172705,0.964417
1400341232705,0.975909
1400341292705,0.967312
1400341352705,0.971944
1400341412705,0.973613
1400341472705,0.971164
1400341532705,0.967566
1400341592705,0.966754
1400341652705,0.975525
1400341712705,0.970532
1400341772705,0.964022
1400341832705,0.970313
1400341892705,0.973861
1400341952705,0.978698
1400342012705,0.962674
1400342072705,0.973952
1400342132705,0.970054
1400342192705,0.967333
1400342252705,0.965636
1400342312705,0.964234
1400342372705,0.968271
1400342432715,0.962348
1400342492715,0.976674
1400342552715,0.966956
1400342612715,0.958798
1400342672715,0.957340
1400342732715,0.967005
1400342792715,0.971678
1400342852715,0.965343
1400342912715,0.977050
1400342972715,0.971595
1400343032715,0.971695
1400343092715,0.979351
1400343152715,0.982702
1400343212715,0.984754
1400343272715,0.974971
1400343332715,0.982518
1400343392715,0.989448
1400343452715,0.987335
1400343512715,0.986527
1400343572715,0.982019
1400343632715,0.992235
1400343692715,0.981230
1400343752715,0.983318
1400343812715,0.984844
1400343872715,0.983310
1400343932715,0.978518
1400343992715,0.983707
1400344052715,0.976381
1400344112715,0.979477
1400344172715,0.978993
1400344232715,0.977397
1400344292715,0.985032
1400344352715,0.969225
1400344412715,0.978319
1400344472715,0.973495
1400344532715,0.978165
1400344592715,0.972263
1400344652715,0.970901
1400344712715,0.963933
1400344772715,0.973011
1400344832715,0.972556
1400344892715,0.971321
1400344952715,0.969648
1400345012715,0.967077
1400345072715,0.978120
1400345132715,0.971004
1400345192715,0.973296
1400345252715,0.969372
1400345312715,0.969081
1400345372715,0.965710
1400345432715,0.965792
1400345492715,0.972782
1400345552715,0.958384
1400345612715,0.967021
1400345672715,0.953525
1400345732715,0.972197
1400345792715,0.964712
1400345852715,0.963532
1400345912715,0.962159
1400345972715,0.960259
1400346032725,0.957900
1400346092725,0.957896
1400346152725,0.959363
1400346212725,0.957680
1400346272725,0.968413
1400346332725,0.965284
1400346392725,0.954890
1400346452725,0.962487
1400346512725,0.955260
1400346572725,0.957302
1400346632725,0.957608
1400346692725,0.947620
1400346752725,0.957136
1400346812725,0.948865
1400346872725,0.948754
1400346932725,0.952683
1400346992725,0.944493
1400347052725,0.955559
1400347112725,0.954883
1400347172725,0.956049
1400347232725,0.951353
1400347292725,0.959113
1400347352725,0.955972
1400347412725,0.954317
1400347472725,0.957245
1400347532725,0.955419
1400347592725,0.961156
1400347652725,0.951483
1400347712725,0.956487